Weather History for King Salmon, AK

Change the Weather History Date:

Sunday, October 2, 2011

  Actual Average Record
Temperature  
Mean Temperature 40 °F 40 °F  
Max Temperature 51 °F 48 °F 63 °F (1954)
Min Temperature 28 °F 32 °F 16 °F (1974)
Degree Days  
Heating Degree Days 25 25  
Month to date heating degree days 47 49  
Since 1 July heating degree days 1346 1184  
Cooling Degree Days 0    
Month to date cooling degree days 0  
Year to date cooling degree days 0  
Moisture  
Dew Point 37 °F    
Average Humidity 0    
Maximum Humidity 0    
Minimum Humidity 0    
Precipitation  
Precipitation 0.23 in 0.08 in 0.54 in (1960)
Month to date precipitation 0.23 0.17  
Year to date precipitation 16.51 14.96  
Snow  
Snow 0.00 in 0.00 in 0.10 in (1956)
Month to date snowfall 0.0 0.0  
Since 1 July snowfall 0.0 0.1  
Since 1 September snowfall 0.0 0.1  
Snow Depth 0.00 in    
Sea Level Pressure  
Sea Level Pressure 29.38 in    
Wind  
Wind Speed 4 mph (SE)    
Max Wind Speed 9 mph    
Max Gust Speed 12 mph    
Visibility 9 miles    
Events Rain    
T = Trace of Precipitation, MM = Missing Value Source: NWS Daily Summary

Daily Weather History Graph

Daily Weather History Graph

Search for Another Location

Airport:

Trip Planner

Search our weather history database for the weather conditions in past years. The results will help you decide how hot, cold, wet, or windy it might be!

Date:

Astronomy

Oct. 02, 2011 Rise Set
Actual Time 8:33 AM AKDT 7:57 PM AKDT
Civil Twilight 7:53 AM AKDT 8:36 PM AKDT
Nautical Twilight 7:06 AM AKDT 9:23 PM AKDT
Astronomical Twilight 6:17 AM AKDT 10:12 PM AKDT
Moon 4:16 PM AKDT (10/2) 10:43 PM AKDT (10/2)
Length of Visible Light 12h 43m
Length of Day
11h 23m
Waxing Crescent, 36% of the Moon is Illuminated
Oct 2
Waxing Crescent
Oct 3
First Quarter
Oct 11
Full
Oct 19
Last Quarter
Oct 26
New

Hourly Weather History & Observations

Time (AKDT) Temp. Windchill Dew Point Humidity Pressure Visibility Wind Dir Wind Speed Gust Speed Precip Events Conditions
12:54 AM 33.1 °F - 30.0 °F 89% 29.43 in 10.0 mi Calm Calm - N/A   Partly Cloudy
1:54 AM 34.0 °F 31.0 °F 32.0 °F 92% 29.43 in 10.0 mi SW 3.5 mph - N/A   Partly Cloudy
2:54 AM 30.9 °F 27.5 °F 30.0 °F 96% 29.43 in 10.0 mi ENE 3.5 mph - N/A   Mostly Cloudy
3:54 AM 28.9 °F 25.2 °F 28.0 °F 96% 29.42 in 10.0 mi SE 3.5 mph - N/A   Scattered Clouds
4:54 AM 30.0 °F 26.5 °F 28.0 °F 92% 29.42 in 10.0 mi SE 3.5 mph - N/A   Scattered Clouds
5:54 AM 33.1 °F 30.0 °F 32.0 °F 96% 29.41 in 10.0 mi SSE 3.5 mph - N/A   Overcast
6:54 AM 34.0 °F - 33.1 °F 96% 29.41 in 10.0 mi Calm Calm - N/A   Overcast
7:54 AM 34.0 °F 31.0 °F 33.1 °F 96% 29.41 in 10.0 mi ESE 3.5 mph - N/A   Overcast
8:54 AM 35.1 °F - 34.0 °F 96% 29.40 in 10.0 mi Calm Calm - N/A   Overcast
9:54 AM 39.9 °F 36.7 °F 37.9 °F 93% 29.40 in 10.0 mi ESE 4.6 mph - N/A   Overcast
10:54 AM 44.1 °F 40.8 °F 39.9 °F 85% 29.39 in 10.0 mi SE 5.8 mph - N/A   Overcast
11:54 AM 45.0 °F 42.6 °F 41.0 °F 86% 29.39 in 10.0 mi SE 4.6 mph - N/A   Mostly Cloudy
12:54 PM 48.9 °F - 41.0 °F 74% 29.39 in 10.0 mi SSE 4.6 mph - N/A   Overcast
1:54 PM 50.0 °F - 39.9 °F 68% 29.37 in 10.0 mi South 5.8 mph - N/A   Overcast
2:54 PM 50.0 °F - 39.0 °F 66% 29.36 in 10.0 mi Variable 4.6 mph - N/A   Scattered Clouds
3:54 PM 50.0 °F - 39.9 °F 68% 29.35 in 10.0 mi South 4.6 mph - 0.00 in   Overcast
4:10 PM 46.4 °F 42.4 °F 42.8 °F 87% 29.35 in 3.0 mi South 8.1 mph - 0.02 in Rain Rain
4:19 PM 46.4 °F 42.4 °F 41.0 °F 81% 29.35 in 7.0 mi South 8.1 mph - 0.06 in Rain Light Rain
4:54 PM 46.9 °F - 44.1 °F 90% 29.34 in 10.0 mi ESE 8.1 mph - 0.08 in Rain Light Rain
5:54 PM 46.9 °F - 41.0 °F 80% 29.34 in 6.0 mi Calm Calm - 0.02 in Rain Rain
6:54 PM 45.0 °F - 41.0 °F 86% 29.34 in 9.0 mi Calm Calm - 0.10 in Rain Light Rain
7:54 PM 44.1 °F 41.5 °F 41.0 °F 89% 29.34 in 10.0 mi ENE 4.6 mph - 0.00 in   Overcast
8:51 PM 44.6 °F 42.2 °F 41.0 °F 87% 29.34 in 10.0 mi Variable 4.6 mph - N/A   Overcast
8:54 PM 44.1 °F 42.5 °F 41.0 °F 89% 29.35 in 10.0 mi ESE 3.5 mph - N/A   Overcast
9:54 PM 42.1 °F 40.2 °F 41.0 °F 96% 29.35 in 10.0 mi East 3.5 mph - N/A   Overcast
10:54 PM 41.0 °F - 39.0 °F 93% 29.35 in 10.0 mi Calm Calm - 0.01 in   Overcast
11:54 PM 43.0 °F 39.5 °F 39.0 °F 86% 29.35 in 10.0 mi SE 5.8 mph - 0.00 in   Overcast